Satellite-Ground Cal/Val Site Overpasses Predictions

Prediction of Satellite NPP Overpassing Cal/Val Site: Antarctic Dome C

Ground Cal/Val Site Location: Latitude: -75.10, Longitude: 123.35; Satellite-Ground Site NADIR distance within 100 km.

Table of predicted overpasses for the next 14.0 days since TLE Epoch: 12/6/2019
Interval Starting Time Ending Time Minimum Distance Time Minimum Distance (km)
1 12/07/2019 07:37:39 12/07/2019 07:38:06 12/07/2019 07:37:53 37.13
2 12/08/2019 07:18:53 12/08/2019 07:19:13 12/08/2019 07:19:03 72.91
3 12/10/2019 15:01:06 12/10/2019 15:01:30 12/10/2019 15:01:18 57.18
4 12/11/2019 14:42:15 12/11/2019 14:42:40 12/11/2019 14:42:28 52.06
5 12/12/2019 07:43:56 12/12/2019 07:44:16 12/12/2019 07:44:06 72.28
6 12/13/2019 07:25:02 12/13/2019 07:25:30 12/13/2019 07:25:16 35.68
7 12/15/2019 15:07:27 12/15/2019 15:07:36 12/15/2019 15:07:31 94.75
8 12/16/2019 14:48:27 12/16/2019 14:48:56 12/16/2019 14:48:41 16.66


NCC Satellite Cal/Val Overpasses Prediction Service
